Date String (YYYY-MM-DD hh:mm:ss) UTC,Instrument flags,absolute air pressure of the measurement (hPa),sample flow rate (lpm),inlet stack bypass flow (lpm),air temperature of the measurement (°C),ambient temperature measured by the external sensor (°C),aerosol sample conditioner tube jacket temperature (°C),OPC LED temperature (°C),internal box temperature (°C),relative humidity of the measurement (%),span deviation,mass concentration of particles derived from Lorenz-Mie calculation of OPC scattering (μg/m³),mass concentration of particles derived from Lorenz-Mie calculation of OPC scattering (μg/m³),mass concentration of particles derived from Lorenz-Mie calculation of OPC scattering (μg/m³)
DateTimeUTC,F1_M11,P_M11,Q1_M11,Q2_M11,T1_M11,T2_M11,T3_M11,T4_M11,T5_M11,U1_M11,ZSPAN_M11,X0_M11,X2_M11,X1_M11
2024-03-01 03:00:00,SystemResetWarning,0823.3,4.99,000.00,024.9,023.9,000.0,033.4,026.7,05.1,0000.0,0007.40,0003.23,0002.00
2024-03-01 03:01:00,SystemResetWarning,0823.3,5.01,000.00,024.9,023.9,000.0,033.4,026.7,05.0,0000.0,0007.65,0003.24,0001.99
2024-03-01 03:02:00,SystemResetWarning,0823.3,5.01,000.00,024.9,023.9,000.0,033.4,026.7,05.0,0000.0,0007.73,0003.23,0001.96
2024-03-01 03:03:00,SystemResetWarning,0823.3,5.01,000.00,024.9,023.9,000.0,033.4,026.7,05.0,0000.0,0008.06,0003.26,0001.95
2024-03-01 03:04:00,SystemResetWarning,0823.4,5.00,000.00,024.8,023.9,000.0,033.4,026.7,05.0,0000.0,0008.08,0003.27,0001.97
2024-03-01 03:05:00,SystemResetWarning,0823.4,4.99,000.00,024.8,023.9,000.0,033.4,026.7,05.0,0000.0,0008.21,0003.32,0001.99
2024-03-01 03:06:00,SystemResetWarning,0823.4,5.00,000.00,024.8,023.9,000.0,033.4,026.7,05.2,0000.0,0008.16,0003.37,0002.00
2024-03-01 03:07:00,SystemResetWarning,0823.3,5.00,000.00,024.8,023.9,000.0,033.4,026.7,05.2,0000.0,0008.20,0003.38,0002.01
2024-03-01 03:08:00,SystemResetWarning,0823.3,5.00,000.00,024.8,023.9,000.0,033.4,026.7,05.2,0000.0,0008.31,0003.39,0002.04
2024-03-01 03:09:00,SystemResetWarning,0823.3,5.00,000.00,024.8,023.9,000.0,033.3,026.6,05.0,0000.0,0008.35,0003.41,0002.05
2024-03-01 03:10:00,SystemResetWarning,0823.3,5.00,000.00,024.8,023.9,000.0,033.3,026.6,05.0,0000.0,0008.17,0003.44,0002.05
2024-03-01 03:11:00,SystemResetWarning,0823.3,5.00,000.00,024.8,023.9,000.0,033.3,026.6,05.3,0000.0,0007.77,0003.46,0002.06
2024-03-01 03:12:00,SystemResetWarning,0823.4,5.00,000.00,024.8,023.9,000.0,033.3,026.6,05.7,0000.0,0008.02,0003.42,0002.07
2024-03-01 03:13:00,SystemResetWarning,0823.4,4.99,000.00,024.8,023.9,000.0,033.3,026.6,05.6,0000.0,0007.95,0003.41,0002.07
2024-03-01 03:14:00,SystemResetWarning,0823.4,5.00,000.00,024.8,023.8,000.0,033.3,026.6,05.4,0000.0,0007.64,0003.39,0002.08
2024-03-01 03:15:00,SystemResetWarning,0823.3,5.00,000.00,024.8,023.8,000.0,033.3,026.6,05.3,0000.0,0007.62,0003.39,0002.06
2024-03-01 03:16:00,SystemResetWarning,0823.3,5.00,000.00,024.8,023.8,000.0,033.3,026.6,05.0,0000.0,0007.59,0003.37,0002.04
2024-03-01 03:17:00,SystemResetWarning,0823.4,5.00,000.00,024.8,023.8,000.0,033.3,026.6,05.0,0000.0,0007.59,0003.35,0002.03
2024-03-01 03:18:00,SystemResetWarning,0823.4,5.00,000.00,024.8,023.8,000.0,033.3,026.6,05.0,0000.0,0007.58,0003.35,0002.03
2024-03-01 03:19:00,SystemResetWarning,0823.4,5.00,000.00,024.8,023.8,000.0,033.3,026.6,05.1,0000.0,0007.58,0003.37,0002.02
2024-03-01 03:20:00,SystemResetWarning,0823.4,5.00,000.00,024.7,023.8,000.0,033.3,026.6,05.2,0000.0,0007.60,0003.35,0002.02
2024-03-01 03:21:00,SystemResetWarning,0823.4,5.00,000.00,024.7,023.8,000.0,033.3,026.6,05.5,0000.0,0007.82,0003.35,0002.03
2024-03-01 03:22:00,SystemResetWarning,0823.4,5.00,000.00,024.7,023.8,000.0,033.3,026.6,05.6,0000.0,0007.75,0003.32,0002.04
2024-03-01 03:23:00,SystemResetWarning,0823.4,5.00,000.00,024.7,023.8,000.0,033.3,026.6,05.6,0000.0,0007.38,0003.38,0002.05
2024-03-01 03:24:00,SystemResetWarning,0823.4,5.00,000.00,024.7,023.8,000.0,033.3,026.6,05.5,0000.0,0007.27,0003.40,0002.07
2024-03-01 03:25:00,SystemResetWarning,0823.4,5.01,000.00,024.7,023.8,000.0,033.3,026.6,05.4,0000.0,0007.31,0003.42,0002.07
2024-03-01 03:26:00,SystemResetWarning,0823.4,5.01,000.00,024.7,023.8,000.0,033.3,026.5,05.3,0000.0,0007.31,0003.41,0002.10
2024-03-01 03:27:00,SystemResetWarning,0823.4,5.01,000.00,024.7,023.7,000.0,033.2,026.5,04.8,0000.0,0007.43,0003.44,0002.11
2024-03-01 03:28:00,SystemResetWarning,0823.4,5.00,000.00,024.7,023.7,000.0,033.2,026.5,04.8,0000.0,0007.49,0003.44,0002.11
2024-03-01 03:29:00,SystemResetWarning,0823.4,4.99,000.00,024.7,023.7,000.0,033.2,026.5,05.0,0000.0,0007.42,0003.42,0002.10
2024-03-01 03:30:00,SystemResetWarning,0823.4,5.00,000.00,024.7,023.7,000.0,033.2,026.5,05.1,0000.0,0007.30,0003.38,0002.09
2024-03-01 03:31:00,SystemResetWarning,0823.4,5.01,000.00,024.7,023.7,000.0,033.2,026.5,05.6,0000.0,0007.23,0003.37,0002.08
2024-03-01 03:32:00,SystemResetWarning,0823.4,5.01,000.00,024.7,023.7,000.0,033.2,026.5,05.6,0000.0,0006.87,0003.35,0002.08
2024-03-01 03:33:00,SystemResetWarning,0823.4,5.00,000.00,024.7,023.7,000.0,033.2,026.5,05.7,0000.0,0007.28,0003.36,0002.08
2024-03-01 03:34:00,SystemResetWarning,0823.5,5.00,000.00,024.7,023.7,000.0,033.2,026.5,05.7,0000.0,0007.09,0003.31,0002.08
2024-03-01 03:35:00,SystemResetWarning,0823.5,5.00,000.00,024.6,023.7,000.0,033.2,026.5,05.6,0000.0,0007.19,0003.32,0002.09
2024-03-01 03:36:00,SystemResetWarning,0823.5,5.00,000.00,024.6,023.7,000.0,033.1,026.4,05.6,0000.0,0007.84,0003.31,0002.10
2024-03-01 03:37:00,SystemResetWarning,0823.5,4.99,000.00,024.6,023.7,000.0,033.1,026.4,05.6,0000.0,0007.88,0003.33,0002.09
2024-03-01 03:38:00,SystemResetWarning,0823.5,5.00,000.00,024.6,023.7,000.0,033.1,026.4,05.5,0000.0,0007.84,0003.34,0002.10
2024-03-01 03:39:00,SystemResetWarning,0823.5,5.01,000.00,024.6,023.6,000.0,033.1,026.4,05.5,0000.0,0007.89,0003.32,0002.09
2024-03-01 03:40:00,SystemResetWarning,0823.4,5.02,000.00,024.6,023.6,000.0,033.1,026.4,05.5,0000.0,0008.08,0003.33,0002.08
2024-03-01 03:41:00,SystemResetWarning,0823.4,5.00,000.00,024.6,023.6,000.0,033.1,026.4,05.5,0000.0,0008.23,0003.35,0002.08
2024-03-01 03:42:00,SystemResetWarning,0823.4,4.99,000.00,024.6,023.6,000.0,033.1,026.4,05.1,0000.0,0008.87,0003.38,0002.07
2024-03-01 03:43:00,SystemResetWarning,0823.4,4.99,000.00,024.6,023.6,000.0,033.1,026.3,05.2,0000.0,0009.12,0003.41,0002.06
2024-03-01 03:44:00,SystemResetWarning,0823.4,5.00,000.00,024.6,023.6,000.0,033.1,026.3,05.1,0000.0,0008.80,0003.39,0002.05
2024-03-01 03:45:00,SystemResetWarning,0823.5,5.01,000.00,024.6,023.6,000.0,033.1,026.3,05.0,0000.0,0008.86,0003.40,0002.05
2024-03-01 03:46:00,SystemResetWarning,0823.5,5.01,000.00,024.6,023.6,000.0,033.0,026.3,05.1,0000.0,0008.79,0003.37,0002.04
2024-03-01 03:47:00,SystemResetWarning,0823.4,5.01,000.00,024.6,023.6,000.0,033.0,026.3,05.1,0000.0,0008.27,0003.35,0002.02
2024-03-01 03:48:00,SystemResetWarning,0823.5,5.00,000.00,024.6,023.6,000.0,033.0,026.3,05.1,0000.0,0008.18,0003.34,0002.01
2024-03-01 03:49:00,SystemResetWarning,0823.5,5.00,000.00,024.5,023.6,000.0,033.0,026.3,05.2,0000.0,0008.17,0003.32,0001.99
2024-03-01 03:50:00,SystemResetWarning,0823.5,5.00,000.00,024.5,023.6,000.0,033.0,026.3,05.6,0000.0,0008.02,0003.31,0002.00
2024-03-01 03:51:00,SystemResetWarning,0823.5,5.00,000.00,024.5,023.6,000.0,033.0,026.3,05.7,0000.0,0007.83,0003.28,0002.01
2024-03-01 03:52:00,SystemResetWarning,0823.4,5.00,000.00,024.5,023.6,000.0,033.0,026.3,05.7,0000.0,0007.68,0003.25,0002.01
2024-03-01 03:53:00,SystemResetWarning,0823.4,5.00,000.00,024.5,023.5,000.0,033.0,026.3,05.5,0000.0,0006.49,0003.20,0002.02
2024-03-01 03:54:00,SystemResetWarning,0823.4,5.00,000.00,024.5,023.5,000.0,033.0,026.3,05.4,0000.0,0006.09,0003.17,0002.01
2024-03-01 03:55:00,SystemResetWarning,0823.4,4.99,000.00,024.5,023.5,000.0,033.0,026.3,05.2,0000.0,0006.04,0003.17,0002.01
2024-03-01 03:56:00,SystemResetWarning,0823.4,5.00,000.00,024.5,023.5,000.0,033.0,026.3,05.0,0000.0,0006.13,0003.17,0002.00
2024-03-01 03:57:00,SystemResetWarning,0823.4,5.01,000.00,024.5,023.5,000.0,033.0,026.3,04.9,0000.0,0006.14,0003.17,0001.98
2024-03-01 03:58:00,SystemResetWarning,0823.3,5.01,000.00,024.5,023.5,000.0,033.0,026.3,05.0,0000.0,0006.08,0003.16,0001.96
2024-03-01 03:59:00,SystemResetWarning,0823.3,5.00,000.00,024.4,023.5,000.0,033.0,026.3,05.0,0000.0,0005.80,0003.13,0001.95
